This demonstration page uses our WeatherBlox Daily Observations layout. Learn more.

Left ArrowRight Arrow

34.74481, -87.66753

Hourly Observations for April 10, 2017

Temp ( °F °C ) Dew Point ( °F °C ) Humidity (%) Winds ( mph kmh ) Pressure ( in mb ) Visibility ( mi km ) Precip ( " mm )
12:53 am 00:53 Clear 61 16.1 43 6.1 52 52 SSE 8 13 30.08 1019 10 16 0.00 0.00
1:53 am 01:53 Clear 64 17.8 42 5.6 45 45 S 10 17 30.08 1019 10 16 0.00 0.00
2:53 am 02:53 Clear 61 16.1 44 6.7 54 54 SSW 9 15 30.09 1019 10 16 0.00 0.00
3:53 am 03:53 Clear 59 15 45 7.2 60 60 S 7 11 30.11 1020 10 16 0.00 0.00
4:53 am 04:53 Clear 56 13.3 45 7.2 67 67 SSE 5 7 30.12 1020 10 16 0.00 0.00
5:53 am 05:53 Clear 56 13.3 46 7.8 70 70 S 6 9 30.13 1020 10 16 0.00 0.00
6:53 am 06:53 Sunny 55 12.8 47 8.3 74 74 SSE 7 11 30.17 1022 10 16 0.00 0.00
7:53 am 07:53 Sunny 60 15.6 49 9.4 67 67 SSW 7 11 30.20 1023 10 16 0.00 0.00
8:53 am 08:53 Sunny 63 17.2 50 10 63 63 S 7 11 30.20 1023 10 16 0.00 0.00
9:53 am 09:53 Sunny 68 20 51 10.6 55 55 SSW 7 11 30.22 1023 10 16 0.00 0.00
10:53 am 10:53 Sunny 73 22.8 48 8.9 41 41 SSW 14 22 30.22 1024 10 16 0.00 0.00
11:53 am 11:53 Sunny 74 23.3 48 8.9 40 40 SW 10 17 30.21 1023 10 16 0.00 0.00
12:53 pm 12:53 Sunny 76 24.4 47 8.3 36 36 S 10 17 30.19 1022 10 16 0.00 0.00
1:53 pm 13:53 Sunny 79 26.1 47 8.3 32 32 S 9 15 30.16 1021 10 16 0.00 0.00
2:53 pm 14:53 Sunny 80 26.7 46 7.8 30 30 S 9 15 30.14 1021 10 16 0.00 0.00
3:53 pm 15:53 Sunny 80 26.7 47 8.3 31 31 SW 14 22 30.12 1020 10 16 0.00 0.00
4:53 pm 16:53 Sunny 79 26.1 46 7.8 31 31 SSW 12 19 30.11 1020 10 16 0.00 0.00
5:53 pm 17:53 Sunny 78 25.6 47 8.3 33 33 SSW 8 13 30.11 1020 10 16 0.00 0.00
6:53 pm 18:53 Sunny 73 22.8 50 10 44 44 SW 5 7 30.11 1020 10 16 0.00 0.00
7:53 pm 19:53 Clear 71 21.7 49 9.4 46 46 WSW 5 7 30.14 1021 10 16 0.00 0.00
8:53 pm 20:53 Clear 67 19.4 50 10 55 55 S 5 7 30.17 1022 10 16 0.00 0.00
9:53 pm 21:53 Clear 64 17.8 51 10.6 63 63 S 3 6 30.17 1022 10 16 0.00 0.00
10:53 pm 22:53 Clear 66 18.9 53 11.7 63 63 S 5 7 30.17 1022 10 16 0.00 0.00
11:53 pm 23:53 Clear 66 18.9 53 11.7 63 63 S 6 9 30.17 1022 10 16 0.00 0.00

Powered by AerisWeather